Terug naar catalogus

FENGYUN 1C DEB

ActiefSSO
NORAD 36652·DEBRIS·🇨🇳 China

Gelanceerd May 10, 1999 vanaf Taiyuan Satellite Launch Center

Loading…

Volgende Passages (komende 24 uur)

TLE

VersSource: Space-Track

Epoch: Sep 13, 2026, 12:39 UTC

1 36652U 99025DXW 26256.52757768  .00002385  00000-0  10309-2 0  9998
2 36652  98.9345 348.1389 0049238 280.7392  78.8245 14.24725260682356

Volg FENGYUN 1C DEB in realtime met AllMySat

Download on the App Store